Miscellaneous Local Product
Issued by NWS Hastings, NE

Home | Current Version | Previous Version | Graphics & Text | Print | Product List | Glossary On
Versions: 1 2 3 4 5 6 7 8 9 10 11 12 13 14 15 16 17 18 19 20 21 22 23 24 25 26 27 28 29 30 31 32 33 34 35 36 37 38 39 40 41 42 43 44 45 46 47 48 49 50
000
AXUS43 KGID 161002
MISGRI

GID CWA HOURLY WEATHER ROUNDUP
NATIONAL WEATHER SERVICE HASTINGS NE
500 AM CDT WED APR 16 2014

NOTE: "FAIR" INDICATES FEW OR NO CLOUDS BELOW 12,000 FEET WITH NO
SIGNIFICANT WEATHER AND/OR OBSTRUCTIONS TO VISIBILITY.

...SOUTH CENTRAL NEBRASKA...

CITY           SKY/WX    TMP DP  RH WIND       PRES   REMARKS
GRAND ISLAND   CLOUDY    47  24  40 S22G30    29.63F
HASTINGS       MOCLDY    47  22  37 S16G24    29.64F
ORD            MOCLDY    46  25  43 SW8       29.62R
YORK           MOCLDY    45  23  42 S23       29.67F
AURORA         CLOUDY    46  23  39 S17G23    29.65F
LEXINGTON      MOCLDY    45  25  44 W6G17     29.61R
HOLDREGE       CLOUDY    46  21  37 S17G23    29.61S
HEBRON         CLEAR     47  19  32 S20G28    29.71S

...NEBRASKA PANHANDLE...

CITY           SKY/WX    TMP DP  RH WIND       PRES   REMARKS
CHADRON        LGT RAIN  41  38  89 NW15      29.68R FOG
ALLIANCE       MOCLDY    43  35  73 NW18      29.65R
SCOTTSBLUFF    MOCLDY    42  34  73 NW21G31   29.72R
SIDNEY         CLOUDY    43  32  65 NW28G40   29.69R

...WESTERN AND NORTH CENTRAL NEBRASKA...

CITY           SKY/WX    TMP DP  RH WIND       PRES   REMARKS
VALENTINE      CLOUDY    50  30  46 NW24G31   29.52R
AINSWORTH      CLOUDY    57  32  38 W22G36    29.53R
ONEILL         CLOUDY    49  24  38 S14       29.55S
BROKEN BOW     CLOUDY    43  27  53 SW9       29.59R
IMPERIAL       PTCLDY    43  30  60 NW12      29.62R
NORTH PLATTE   MOCLDY    40  26  57 SE3       29.59F
MCCOOK         MOCLDY    44  23  43 SW10      29.60R

...EASTERN NEBRASKA...

CITY           SKY/WX    TMP DP  RH WIND       PRES   REMARKS
NORFOLK        CLOUDY    48  23  37 S24G35    29.60F
SO SIOUX CITY  CLOUDY    48  28  46 S14G20    29.69R
TEKAMAH        CLOUDY    47  28  47 S26G33    29.72F
COLUMBUS       CLOUDY    46  21  36 S18G29    29.66S
ALBION         CLOUDY    45  25  44 S16       29.61F
OMAHA EPPLEY   MOCLDY    45  29  53 S22G31    29.77F
OFFUTT AFB     MOCLDY    42  31  65 SE13      29.78F
MILLARD        MOCLDY    45  28  51 SE15G22   29.76F
LINCOLN        PTCLDY    49  23  36 S22G32    29.72F
NEBRASKA CITY  PTCLDY    45  29  53 S18G25    29.81S
BEATRICE       PTCLDY    48  24  39 S21G26    29.76S
FALLS CITY     CLEAR     47  29  49 S18G28    29.84F

...NORTHERN KANSAS...

CITY           SKY/WX    TMP DP  RH WIND       PRES   REMARKS
GOODLAND       CLEAR     43  28  55 NW17      29.66R
HILL CITY      PTCLDY    49  15  25 S17G26    29.62F
PHILLIPSBURG   CLEAR     48  16  27 S13G22    29.63F
SMITH CENTER   CLEAR     48  16  27 S17G28    29.67F
BELOIT         CLEAR     48  18  29 SE15G24   29.71S
HAYS           CLEAR     45  18  33 S14       29.69F
RUSSELL        CLEAR     48  16  27 S28G38    29.67F
CONCORDIA      CLEAR     49  19  30 S25G39    29.72F
SALINA         CLEAR     50  20  30 S28G35    29.77F
TOPEKA         CLEAR     47  27  45 S13       29.90F



USA.gov is the U.S. government's official web portal to all federal, state and local government web resources and services.